Location: Newport
(44.6370°N, 124.0520°W)
Time: 19:34:51
(UTC-08:00)

Vanguard 1 - Pass Details

Date: 22 July 2018
Orbit: 650 x 3833 km, 34.2° (Epoch: 09 December)

Event Time Altitude Azimuth Distance (km) Brightness Sun altitude
Rises 23:35:00 0° 238° (WSW) 4,280 13.3 -20.8°
Reaches altitude 10° 23:38:56 10° 226° (SW) 2,860 12.3 -21.1°
Enters shadow 23:40:55 16° 213° (SSW) 2,219 11.6 -21.2°
